AMC-3 1 24936U 97050A 26173.59136030 -.00000004 00000+0 00000+0 0 9994 2 24936 8.1784 63.9286 0004406 30.0620 235.7958 0.99064631 52489 NSS-11 1 26554U 00059A 26173.77947344 .00000027 00000+0 00000+0 0 9997 2 26554 2.1418 81.3311 0002979 1.4938 284.7307 1.00271343 41343 AMC-6 1 26580U 00067A 26173.68795111 .00000091 00000+0 00000+0 0 9999 2 26580 0.1670 83.3447 0003715 16.8919 283.2397 1.00270932 93949 AMC-15 1 28446U 04041A 26173.65253714 -.00000086 00000+0 00000+0 0 9998 2 28446 0.0162 14.2455 0002395 65.5382 320.9021 1.00271843 79351 NSS-10 1 28526U 05003A 26173.41630013 -.00000253 00000+0 00000+0 0 9997 2 28526 6.4632 70.3928 0002940 16.0188 296.5942 1.00271663 53207 ASTRA 1KR 1 29055U 06012A 26173.81964880 .00000122 00000+0 00000+0 0 9996 2 29055 0.4892 83.2338 0003576 3.9169 137.9102 1.00273547 45755 ASTRA 1L 1 31306U 07016A 26173.81097389 -.00000182 00000+0 00000+0 0 9991 2 31306 1.3371 81.5476 0005507 15.3114 81.5893 1.00270885 45041 ASTRA 4A 1 32299U 07057A 26173.38910336 .00000035 00000+0 00000+0 0 9992 2 32299 0.0286 301.1665 0002572 155.5547 318.7484 1.00274998 51699 ASTRA 1M 1 33436U 08057A 26173.81973546 .00000124 00000+0 00000+0 0 9996 2 33436 0.3117 82.5992 0005093 27.3236 115.5682 1.00274810 45794 NSS-9 1 33749U 09008A 26173.78086012 .00000074 00000+0 00000+0 0 9993 2 33749 1.2771 82.6152 0002173 352.2054 300.3045 1.00272633 63574 SES-7 (PROTOSTAR 2) 1 34941U 09027A 26173.83735559 -.00000341 00000+0 00000+0 0 9990 2 34941 0.0523 75.1246 0000264 303.6824 301.8829 1.00269542 62688 NSS-12 1 36032U 09058A 26173.84558902 .00000074 00000+0 00000+0 0 9995 2 36032 0.0835 275.7337 0005112 143.1217 213.5815 1.00274572 60979 SES-1 1 36516U 10016A 26173.65331714 -.00000112 00000+0 00000+0 0 9991 2 36516 0.0209 312.0367 0002782 135.7661 317.2169 1.00271906 59081 ASTRA 3B 1 36581U 10021A 26173.82060213 .00000140 00000+0 00000+0 0 9991 2 36581 1.4837 83.4846 0004110 11.0388 135.3853 1.00273508 58926 SES-3 1 37748U 11035A 26173.65288381 -.00000100 00000+0 00000+0 0 9999 2 37748 1.3418 83.0370 0002499 1.7274 318.1047 1.00271864 54646 ASTRA 1N 1 37775U 11041A 26173.81973546 .00000123 00000+0 00000+0 0 9992 2 37775 0.0755 32.2219 0006498 69.5416 123.5246 1.00270877 44581 SES-2 1 37809U 11049A 26173.58478749 -.00000193 00000+0 00000+0 0 9995 2 37809 0.0750 96.2787 0002840 353.0436 304.9582 1.00271506 54011 QUETZSAT 1 1 37826U 11054A 26173.80057384 -.00000239 00000+0 00000+0 0 9994 2 37826 0.0396 65.3830 0002802 27.8200 28.9816 1.00271564 49937 SES-4 1 38087U 12007A 26173.81140722 -.00000165 00000+0 00000+0 0 9991 2 38087 0.0234 25.8795 0002624 78.9222 76.2980 1.00270167 52280 SES-5 1 38652U 12036A 26173.53161025 .00000036 00000+0 00000+0 0 9995 2 38652 0.0466 315.0978 0001946 134.3683 17.5956 1.00271557 44518 ASTRA 2F 1 38778U 12051A 26173.82146881 .00000153 00000+0 00000+0 0 9996 2 38778 0.0495 252.2835 0001820 278.3301 64.2855 1.00273352 41193 SES-6 1 39172U 13026A 26173.80794054 -.00000258 00000+0 00000+0 0 9994 2 39172 0.0164 351.5793 0002702 103.3834 66.3862 1.00271925 47785 O3B FM5 1 39188U 13031A 26173.63691682 -.00000023 00000+0 00000+0 0 9991 2 39188 0.0976 342.4991 0002895 96.7894 280.7426 5.00115611237317 O3B FM4 1 39189U 13031B 26172.15722449 -.00000023 00000+0 00000+0 0 9994 2 39189 0.0421 346.4322 0005075 92.4174 281.2053 5.00115239237242 O3B FM2 1 39190U 13031C 26172.62250630 -.00000023 00000+0 00000+0 0 9996 2 39190 0.0370 341.3224 0002757 105.4432 273.2639 5.00116095237330 O3B PFM 1 39191U 13031D 26173.63607857 -.00000022 00000+0 00000+0 0 9995 2 39191 0.0675 350.9613 0005352 93.5147 275.5834 5.00116070236942 ASTRA 2E 1 39285U 13056A 26173.82155547 .00000153 00000+0 00000+0 0 9995 2 39285 0.0677 322.0751 0002578 135.1035 138.0859 1.00268985 46473 SES-8 1 39460U 13071A 26173.87108400 -.00000266 00000+0 00000+0 0 9994 2 39460 0.0406 273.5485 0002894 179.3607 226.7250 1.00271200 44481 ASTRA 5B 1 39617U 14011B 26173.82051546 .00000140 00000+0 00000+0 0 9996 2 39617 0.0588 316.8259 0002128 114.1470 158.8818 1.00270350 44728 O3B FM3 1 40079U 14038A 26173.30297650 -.00000023 00000+0 00000+0 0 9991 2 40079 0.0479 353.6094 0002398 155.6507 210.7521 5.00115712213302 O3B FM7 1 40080U 14038B 26173.24909309 -.00000023 00000+0 00000+0 0 9997 2 40080 0.0468 344.7671 0003775 79.1532 296.1168 5.00115685218132 O3B FM6 1 40081U 14038C 26173.67585320 -.00000022 00000+0 00000+0 0 9997 2 40081 0.0469 350.3744 0002638 99.9682 269.6859 5.00115792218109 O3B FM8 1 40082U 14038D 26173.72910396 -.00000022 00000+0 00000+0 0 9999 2 40082 0.0468 349.0811 0002761 104.0818 266.8671 5.00116082218222 O3B FM10 1 40348U 14083A 26172.15721175 -.00000023 00000+0 00000+0 0 9996 2 40348 0.0371 329.8397 0002662 119.1310 271.0576 5.00115252210096 O3B FM11 1 40349U 14083B 26173.56909417 -.00000023 00000+0 00000+0 0 9990 2 40349 0.0554 353.8482 0002672 80.7971 285.3826 5.00115560210187 O3B FM12 1 40350U 14083C 26173.59610340 -.00000022 00000+0 00000+0 0 9998 2 40350 0.0545 353.9364 0002524 95.2125 270.8784 5.00115971210196 O3B FM9 1 40351U 14083D 26171.62402781 -.00000024 00000+0 00000+0 0 9991 2 40351 0.0564 353.3969 0002705 94.2350 272.3968 5.00116053210242 ASTRA 2G 1 40364U 14089A 26173.82146881 .00000153 00000+0 00000+0 0 9993 2 40364 0.0479 13.5765 0004805 56.2084 165.1086 1.00271073 42024 SES-9 1 41380U 16013A 26173.40935726 -.00000343 00000+0 00000+0 0 9991 2 41380 0.0113 336.0741 0002161 110.9619 79.2203 1.00273816 37498 SES-10 1 42432U 17017A 26173.30685627 -.00000271 00000+0 00000+0 0 9996 2 42432 0.0191 36.6541 0002841 62.3248 215.0866 1.00271127 33806 SES-15 1 42709U 17026A 26173.68239051 .00000063 00000+0 00000+0 0 9998 2 42709 0.0192 340.0002 0000551 92.8328 314.5146 1.00269052 7486 SES-11 (ECHOSTAR 105) 1 42967U 17063A 26173.65253714 -.00000087 00000+0 00000+0 0 9991 2 42967 0.0174 18.8692 0002912 58.8833 323.0306 1.00271436 31774 SES-14 1 43175U 18012B 26173.80646720 -.00000275 00000+0 00000+0 0 9997 2 43175 0.0182 30.4898 0001070 55.4943 67.8200 1.00270921 7083 O3B FM15 1 43231U 18024A 26172.49039733 -.00000023 00000+0 00000+0 0 9998 2 43231 0.0516 1.7468 0002624 86.7751 271.5061 5.00115787151240 O3B FM16 1 43232U 18024B 26173.54218048 -.00000023 00000+0 00000+0 0 9994 2 43232 0.0514 6.2494 0002644 82.4842 271.2950 5.00116002151216 O3B FM14 1 43233U 18024C 26173.38309653 -.00000023 00000+0 00000+0 0 9990 2 43233 0.0502 7.2075 0002884 84.3913 268.4325 5.00115776151217 O3B FM13 1 43234U 18024D 26171.25057030 -.00000024 00000+0 00000+0 0 9995 2 43234 0.0547 261.1101 0023783 59.3674 39.3467 5.00080344151219 SES-12 1 43488U 18049A 26173.42822541 -.00000268 00000+0 00000+0 0 9991 2 43488 0.0138 15.1769 0000639 274.3741 230.2117 1.00271609 29470 O3B FM20 1 44112U 19020A 26173.60904584 -.00000022 00000+0 00000+0 0 9992 2 44112 0.0522 357.9817 0002424 85.3388 276.7055 5.00115604131841 O3B FM19 1 44113U 19020B 26173.63606545 -.00000022 00000+0 00000+0 0 9992 2 44113 0.0764 339.1666 0003897 93.3433 287.5311 5.00116025131718 O3B FM17 1 44114U 19020C 26173.51634047 -.00000023 00000+0 00000+0 0 9999 2 44114 0.0341 8.5459 0002591 81.5593 269.9227 5.00115598131795 O3B FM18 1 44115U 19020D 26173.66256406 -.00000022 00000+0 00000+0 0 9994 2 44115 0.0525 357.8656 0002772 93.6935 268.4711 5.00115390131921 SES-17 1 49332U 21095A 26173.80256719 -.00000269 00000+0 00000+0 0 9991 2 49332 0.0268 43.7639 0001078 43.9792 45.0560 1.00269685 17916 SES-22 1 52933U 22071A 26173.68795111 .00000107 00000+0 00000+0 0 9997 2 52933 0.0249 290.4894 0001499 151.4554 297.5797 1.00273776 7571 SES-20 1 53960U 22123A 26173.81642153 -.00000098 00000+0 00000+0 0 9998 2 53960 0.0248 66.6614 0001955 13.9012 21.2345 1.00270714 13591 SES-21 1 53961U 22123B 26173.68795111 .00000000 00000+0 00000+0 0 9999 2 53961 0.0386 16.9617 0000902 70.9832 299.6694 1.00267698 7262 O3B MPOWER F1 1 54755U 22174A 26173.80187385 -.00000022 00000+0 00000+0 0 9994 2 54755 0.0515 341.2472 0006475 123.2659 6.3119 5.00114919 65643 O3B MPOWER F2 1 54756U 22174B 26173.70709251 -.00000022 00000+0 00000+0 0 9996 2 54756 0.0474 340.8904 0005854 106.5873 272.5877 5.00115052 65721 SES-18 1 55970U 23038A 26172.94000848 -.00000101 00000+0 00000+0 0 9994 2 55970 0.0186 335.3994 0000127 171.9442 358.0827 1.00271876 12151 SES-19 1 55971U 23038B 26173.68795111 .00000091 00000+0 00000+0 0 9998 2 55971 0.0239 302.0111 0001789 150.9173 290.6839 1.00270721 12147 O3B MPOWER F4 1 56367U 23059A 26173.57145522 -.00000023 00000+0 00000+0 0 9990 2 56367 0.0633 353.8264 0007667 103.7599 262.4992 5.00115538 58872 O3B MPOWER F3 1 56368U 23059B 26173.40474043 -.00000023 00000+0 00000+0 0 9996 2 56368 0.0641 353.2383 0006719 96.3442 270.4929 5.00116508 54995 O3B MPOWER F5 1 58346U 23175A 26173.70560519 -.00000022 00000+0 00000+0 0 9999 2 58346 0.0496 11.1694 0005238 98.7602 250.1252 5.00116066 49712 O3B MPOWER F6 1 58347U 23175B 26173.40629451 -.00000023 00000+0 00000+0 0 9999 2 58347 0.0527 3.0356 0004498 84.2023 272.8119 5.00115917 48612 ASTRA 1P (SES-24) 1 60086U 24115A 26173.67709299 .00000122 00000+0 00000+0 0 9994 2 60086 0.0577 349.7608 0000629 22.1042 161.9436 1.00266587 7255 O3B MPOWER F7 1 62362U 24244A 26173.67256325 -.00000022 00000+0 00000+0 0 9993 2 62362 0.0675 347.2563 0006028 100.8683 271.9429 5.00115265 26806 O3B MPOWER F8 1 62363U 24244B 26173.63950149 -.00000022 00000+0 00000+0 0 9995 2 62363 0.0153 337.9744 0005914 102.7266 279.3642 5.00115150 21139 O3B MPOWER F9 1 64866U 25153A 26173.77280650 -.00000022 00000+0 00000+0 0 9993 2 64866 0.0591 9.0736 0006452 103.2373 247.7560 5.00115778 19834 O3B MPOWER F10 1 64867U 25153B 26173.73881937 -.00000022 00000+0 00000+0 0 9995 2 64867 0.0568 5.1271 0001930 249.5710 105.2789 5.00114920 22311